Time,TemperatureF,DewpointF,PressureIn,WindDirection,WindDirectionDegrees,WindSpeedMPH,WindSpeedGustMPH,Humidity,HourlyPrecipIn,Conditions,Clouds,dailyrainin,SoftwareType,DateUTC
2013-06-03 00:02:00,57.0,51.0,30.06,WSW,254,0.0,0.0,80,-99.99,,,-99.99,,2013-06-03 07:02:00,
2013-06-03 00:11:00,57.0,51.0,30.06,WSW,254,0.0,0.0,80,-99.99,,,-99.99,,2013-06-03 07:11:00,
2013-06-03 00:22:00,56.0,50.0,30.06,WSW,254,0.0,1.0,81,-99.99,,,-99.99,,2013-06-03 07:22:00,
2013-06-03 00:31:00,56.0,51.0,30.06,WSW,254,0.0,0.0,82,-99.99,,,-99.99,,2013-06-03 07:31:00,
2013-06-03 00:42:00,56.0,51.0,30.06,WSW,254,0.0,0.0,82,-99.99,,,-99.99,,2013-06-03 07:42:00,
2013-06-03 00:52:00,55.0,50.0,30.06,WSW,254,0.0,0.0,82,-99.99,,,-99.99,,2013-06-03 07:52:00,
2013-06-03 01:01:00,55.0,49.0,30.06,WSW,254,0.0,0.0,81,-99.99,,,-99.99,,2013-06-03 08:01:00,
2013-06-03 01:11:00,55.0,49.0,30.06,WSW,254,0.0,0.0,81,-99.99,,,-99.99,,2013-06-03 08:11:00,
2013-06-03 01:21:00,55.0,50.0,30.06,WSW,254,0.0,2.0,83,-99.99,,,-99.99,,2013-06-03 08:21:00,
2013-06-03 01:32:00,55.0,51.0,30.06,WSW,255,0.0,1.0,85,-99.99,,,-99.99,,2013-06-03 08:32:00,
2013-06-03 01:41:00,55.0,51.0,30.06,WSW,255,0.0,1.0,85,-99.99,,,-99.99,,2013-06-03 08:41:00,
2013-06-03 01:52:00,54.0,50.0,30.06,WSW,254,0.0,0.0,86,-99.99,,,-99.99,,2013-06-03 08:52:00,
2013-06-03 02:02:00,54.0,50.0,30.06,WSW,254,0.0,0.0,87,-99.99,,,-99.99,,2013-06-03 09:02:00,
2013-06-03 02:11:00,54.0,50.0,30.06,WSW,254,0.0,0.0,87,-99.99,,,-99.99,,2013-06-03 09:11:00,
2013-06-03 02:21:00,53.0,49.0,30.06,WSW,254,0.0,1.0,87,-99.99,,,-99.99,,2013-06-03 09:21:00,
2013-06-03 02:33:00,53.0,49.0,30.06,WSW,254,0.0,1.0,86,-99.99,,,-99.99,,2013-06-03 09:33:00,
2013-06-03 02:42:00,53.0,49.0,30.06,WSW,254,0.0,1.0,86,-99.99,,,-99.99,,2013-06-03 09:42:00,
2013-06-03 02:52:00,53.0,49.0,30.06,WSW,254,0.0,1.0,86,-99.99,,,-99.99,,2013-06-03 09:52:00,
2013-06-03 03:02:00,53.0,49.0,30.06,WSW,254,0.0,1.0,86,-99.99,,,-99.99,,2013-06-03 10:02:00,
2013-06-03 03:12:00,52.0,48.0,30.06,WSW,254,0.0,0.0,86,-99.99,,,-99.99,,2013-06-03 10:12:00,
2013-06-03 03:22:00,52.0,48.0,30.06,WSW,254,0.0,0.0,86,-99.99,,,-99.99,,2013-06-03 10:22:00,
2013-06-03 03:32:00,52.0,48.0,30.06,WSW,254,0.0,1.0,87,-99.99,,,-99.99,,2013-06-03 10:32:00,
2013-06-03 03:42:00,52.0,48.0,30.06,WSW,254,0.0,1.0,87,-99.99,,,-99.99,,2013-06-03 10:42:00,
2013-06-03 03:52:00,52.0,49.0,30.06,WSW,246,0.0,2.0,88,-99.99,,,-99.99,,2013-06-03 10:52:00,
2013-06-03 04:02:00,51.0,48.0,30.06,WSW,246,0.0,1.0,89,-99.99,,,-99.99,,2013-06-03 11:02:00,
2013-06-03 04:12:00,51.0,48.0,30.06,WSW,246,0.0,1.0,89,-99.99,,,-99.99,,2013-06-03 11:12:00,
2013-06-03 04:22:00,51.0,48.0,30.06,WSW,246,0.0,0.0,90,-99.99,,,-99.99,,2013-06-03 11:22:00,
2013-06-03 04:32:00,50.0,47.0,30.06,WSW,246,0.0,0.0,90,-99.99,,,-99.99,,2013-06-03 11:32:00,
2013-06-03 04:41:00,50.0,47.0,30.06,WSW,246,0.0,0.0,90,-99.99,,,-99.99,,2013-06-03 11:41:00,
2013-06-03 04:52:00,50.0,47.0,30.06,WSW,246,0.0,0.0,91,-99.99,,,-99.99,,2013-06-03 11:52:00,
2013-06-03 05:02:00,50.0,48.0,30.06,WSW,246,0.0,0.0,92,-99.99,,,-99.99,,2013-06-03 12:02:00,
2013-06-03 05:11:00,50.0,48.0,30.06,WSW,246,0.0,0.0,92,-99.99,,,-99.99,,2013-06-03 12:11:00,
2013-06-03 05:21:00,50.0,48.0,30.06,WSW,246,0.0,0.0,92,-99.99,,,-99.99,,2013-06-03 12:21:00,
2013-06-03 05:32:00,50.0,48.0,30.07,WSW,246,0.0,1.0,93,-99.99,,,-99.99,,2013-06-03 12:32:00,
2013-06-03 05:42:00,50.0,48.0,30.07,WSW,246,0.0,1.0,93,-99.99,,,-99.99,,2013-06-03 12:42:00,
2013-06-03 05:52:00,51.0,49.0,30.07,WSW,246,0.0,2.0,94,-99.99,,,-99.99,,2013-06-03 12:52:00,
2013-06-03 06:02:00,51.0,49.0,30.07,SSW,193,1.0,6.0,93,-99.99,,,-99.99,,2013-06-03 13:02:00,
2013-06-03 06:22:00,52.0,50.0,30.07,South,182,1.0,4.0,92,-99.99,,,-99.99,,2013-06-03 13:22:00,
2013-06-03 06:32:00,52.0,50.0,30.07,South,175,2.0,4.0,92,-99.99,,,-99.99,,2013-06-03 13:32:00,
2013-06-03 06:42:00,52.0,50.0,30.07,South,175,2.0,4.0,92,-99.99,,,-99.99,,2013-06-03 13:42:00,
2013-06-03 06:52:00,52.0,49.0,30.07,SSE,163,2.0,4.0,90,-99.99,,,-99.99,,2013-06-03 13:52:00,
2013-06-03 07:02:00,52.0,49.0,30.08,SSE,166,0.0,5.0,89,-99.99,,,-99.99,,2013-06-03 14:02:00,
2013-06-03 07:22:00,53.0,49.0,30.08,SSE,164,0.0,6.0,87,-99.99,,,-99.99,,2013-06-03 14:22:00,
2013-06-03 07:32:00,53.0,49.0,30.09,SSE,153,3.0,5.0,86,-99.99,,,-99.99,,2013-06-03 14:32:00,
2013-06-03 07:42:00,53.0,49.0,30.09,SSE,153,3.0,5.0,86,-99.99,,,-99.99,,2013-06-03 14:42:00,
2013-06-03 07:52:00,53.0,49.0,30.09,SSE,158,0.0,6.0,86,-99.99,,,-99.99,,2013-06-03 14:52:00,
2013-06-03 08:02:00,53.0,49.0,30.09,SE,142,2.0,6.0,85,-99.99,,,-99.99,,2013-06-03 15:02:00,
2013-06-03 08:11:00,53.0,49.0,30.09,SE,142,2.0,6.0,85,-99.99,,,-99.99,,2013-06-03 15:11:00,
2013-06-03 08:22:00,54.0,49.0,30.09,South,174,1.0,4.0,84,-99.99,,,-99.99,,2013-06-03 15:22:00,
2013-06-03 08:33:00,54.0,49.0,30.09,SE,126,2.0,7.0,83,-99.99,,,-99.99,,2013-06-03 15:33:00,
2013-06-03 08:42:00,54.0,49.0,30.09,SE,126,2.0,7.0,83,-99.99,,,-99.99,,2013-06-03 15:42:00,
2013-06-03 08:53:00,54.0,49.0,30.10,SSE,163,1.0,5.0,82,-99.99,,,-99.99,,2013-06-03 15:53:00,
2013-06-03 09:02:00,55.0,49.0,30.10,SE,137,2.0,4.0,81,-99.99,,,-99.99,,2013-06-03 16:02:00,
2013-06-03 09:12:00,56.0,50.0,30.10,SE,135,2.0,5.0,79,-99.99,,,-99.99,,2013-06-03 16:12:00,
2013-06-03 09:22:00,56.0,50.0,30.10,SE,135,2.0,5.0,79,-99.99,,,-99.99,,2013-06-03 16:22:00,
2013-06-03 09:32:00,56.0,50.0,30.10,SE,141,2.0,7.0,79,-99.99,,,-99.99,,2013-06-03 16:32:00,
2013-06-03 09:42:00,57.0,50.0,30.10,South,180,1.0,6.0,76,-99.99,,,-99.99,,2013-06-03 16:42:00,
2013-06-03 09:53:00,57.0,50.0,30.10,South,180,1.0,6.0,76,-99.99,,,-99.99,,2013-06-03 16:53:00,
2013-06-03 10:02:00,57.0,49.0,30.10,SSE,160,3.0,7.0,75,-99.99,,,-99.99,,2013-06-03 17:02:00,
2013-06-03 10:12:00,57.0,49.0,30.10,SSE,160,3.0,7.0,75,-99.99,,,-99.99,,2013-06-03 17:12:00,
2013-06-03 10:22:00,59.0,50.0,30.10,SE,146,4.0,9.0,71,-99.99,,,-99.99,,2013-06-03 17:22:00,
2013-06-03 10:33:00,60.0,50.0,30.10,SSW,210,0.0,6.0,70,-99.99,,,-99.99,,2013-06-03 17:33:00,
2013-06-03 10:42:00,60.0,50.0,30.10,SSW,210,0.0,6.0,70,-99.99,,,-99.99,,2013-06-03 17:42:00,
2013-06-03 10:52:00,60.0,50.0,30.10,WSW,256,1.0,7.0,69,-99.99,,,-99.99,,2013-06-03 17:52:00,
2013-06-03 11:02:00,61.0,50.0,30.10,SSW,202,2.0,7.0,67,-99.99,,,-99.99,,2013-06-03 18:02:00,
2013-06-03 11:12:00,63.0,51.0,30.10,SSW,199,2.0,9.0,64,-99.99,,,-99.99,,2013-06-03 18:12:00,
2013-06-03 11:22:00,63.0,51.0,30.10,SSW,199,2.0,9.0,64,-99.99,,,-99.99,,2013-06-03 18:22:00,
2013-06-03 11:32:00,63.0,50.0,30.10,WSW,247,3.0,7.0,63,-99.99,,,-99.99,,2013-06-03 18:32:00,
2013-06-03 11:42:00,63.0,50.0,30.10,WSW,247,3.0,7.0,63,-99.99,,,-99.99,,2013-06-03 18:42:00,
2013-06-03 11:52:00,63.0,51.0,30.10,SW,226,2.0,10.0,66,-99.99,,,-99.99,,2013-06-03 18:52:00,
2013-06-03 12:03:00,64.0,51.0,30.10,West,272,2.0,6.0,62,-99.99,,,-99.99,,2013-06-03 19:03:00,
2013-06-03 12:12:00,64.0,51.0,30.10,West,272,2.0,6.0,62,-99.99,,,-99.99,,2013-06-03 19:12:00,
2013-06-03 12:22:00,64.0,50.0,30.10,SSW,212,3.0,10.0,61,-99.99,,,-99.99,,2013-06-03 19:22:00,
2013-06-03 12:32:00,64.0,51.0,30.10,SSE,157,4.0,9.0,62,-99.99,,,-99.99,,2013-06-03 19:32:00,
2013-06-03 12:42:00,64.0,51.0,30.10,SSE,157,4.0,9.0,62,-99.99,,,-99.99,,2013-06-03 19:42:00,
2013-06-03 12:52:00,63.0,50.0,30.10,SSE,168,3.0,6.0,62,-99.99,,,-99.99,,2013-06-03 19:52:00,
2013-06-03 13:02:00,65.0,50.0,30.09,SSE,151,2.0,7.0,59,-99.99,,,-99.99,,2013-06-03 20:02:00,
2013-06-03 13:11:00,65.0,50.0,30.09,SSE,151,2.0,7.0,59,-99.99,,,-99.99,,2013-06-03 20:11:00,
2013-06-03 13:22:00,67.0,51.0,30.09,WSW,250,1.0,5.0,57,-99.99,,,-99.99,,2013-06-03 20:22:00,
2013-06-03 13:32:00,67.0,51.0,30.09,SSE,147,2.0,6.0,56,-99.99,,,-99.99,,2013-06-03 20:32:00,
2013-06-03 13:42:00,67.0,51.0,30.09,SSE,147,2.0,6.0,56,-99.99,,,-99.99,,2013-06-03 20:42:00,
2013-06-03 13:52:00,68.0,51.0,30.09,SSW,199,2.0,9.0,54,-99.99,,,-99.99,,2013-06-03 20:52:00,
2013-06-03 14:02:00,68.0,51.0,30.09,WSW,244,2.0,6.0,55,-99.99,,,-99.99,,2013-06-03 21:02:00,
2013-06-03 14:12:00,68.0,51.0,30.09,WSW,244,2.0,6.0,55,-99.99,,,-99.99,,2013-06-03 21:12:00,
2013-06-03 14:22:00,69.0,51.0,30.09,South,169,2.0,6.0,52,-99.99,,,-99.99,,2013-06-03 21:22:00,
2013-06-03 14:32:00,70.0,52.0,30.08,SSW,201,0.0,7.0,52,-99.99,,,-99.99,,2013-06-03 21:32:00,
2013-06-03 14:43:00,70.0,52.0,30.08,SSW,201,0.0,7.0,52,-99.99,,,-99.99,,2013-06-03 21:43:00,
2013-06-03 14:52:00,70.0,52.0,30.07,WSW,257,0.0,4.0,52,-99.99,,,-99.99,,2013-06-03 21:52:00,
2013-06-03 15:02:00,71.0,51.0,30.07,SW,224,3.0,6.0,50,-99.99,,,-99.99,,2013-06-03 22:02:00,
2013-06-03 15:12:00,71.0,51.0,30.07,SW,224,3.0,6.0,50,-99.99,,,-99.99,,2013-06-03 22:12:00,
2013-06-03 15:22:00,70.0,51.0,30.07,NNW,340,1.0,6.0,51,-99.99,,,-99.99,,2013-06-03 22:22:00,
2013-06-03 15:32:00,72.0,51.0,30.07,WNW,303,1.0,8.0,48,-99.99,,,-99.99,,2013-06-03 22:32:00,
2013-06-03 15:42:00,72.0,51.0,30.07,WNW,303,1.0,8.0,48,-99.99,,,-99.99,,2013-06-03 22:42:00,
2013-06-03 15:52:00,72.0,51.0,30.07,SSW,192,3.0,7.0,47,-99.99,,,-99.99,,2013-06-03 22:52:00,
2013-06-03 16:02:00,72.0,52.0,30.07,WSW,247,2.0,6.0,50,-99.99,,,-99.99,,2013-06-03 23:02:00,
2013-06-03 16:12:00,72.0,52.0,30.07,WSW,247,2.0,6.0,50,-99.99,,,-99.99,,2013-06-03 23:12:00,
2013-06-03 16:22:00,73.0,51.0,30.06,WSW,258,2.0,5.0,46,-99.99,,,-99.99,,2013-06-03 23:22:00,
2013-06-03 16:32:00,73.0,50.0,30.06,SSW,200,1.0,5.0,44,-99.99,,,-99.99,,2013-06-03 23:32:00,
2013-06-03 16:42:00,73.0,50.0,30.06,SSW,200,1.0,5.0,44,-99.99,,,-99.99,,2013-06-03 23:42:00,
2013-06-03 16:52:00,73.0,49.0,30.06,WNW,298,0.0,6.0,43,-99.99,,,-99.99,,2013-06-03 23:52:00,
2013-06-03 17:02:00,73.0,49.0,30.06,SW,228,1.0,7.0,43,-99.99,,,-99.99,,2013-06-04 00:02:00,
2013-06-03 17:11:00,73.0,49.0,30.06,SW,228,1.0,7.0,43,-99.99,,,-99.99,,2013-06-04 00:11:00,
2013-06-03 17:21:00,73.0,49.0,30.05,South,171,1.0,6.0,42,-99.99,,,-99.99,,2013-06-04 00:21:00,
2013-06-03 17:32:00,74.0,50.0,30.05,SSW,192,0.0,5.0,43,-99.99,,,-99.99,,2013-06-04 00:32:00,
2013-06-03 17:42:00,74.0,50.0,30.05,SSW,192,0.0,5.0,43,-99.99,,,-99.99,,2013-06-04 00:42:00,
2013-06-03 17:52:00,74.0,50.0,30.06,SSW,204,1.0,6.0,43,-99.99,,,-99.99,,2013-06-04 00:52:00,
2013-06-03 18:02:00,74.0,49.0,30.05,NNW,340,1.0,6.0,42,-99.99,,,-99.99,,2013-06-04 01:02:00,
2013-06-03 18:12:00,74.0,49.0,30.05,NNW,340,1.0,6.0,42,-99.99,,,-99.99,,2013-06-04 01:12:00,
2013-06-03 18:22:00,74.0,48.0,30.05,WNW,289,0.0,5.0,40,-99.99,,,-99.99,,2013-06-04 01:22:00,
2013-06-03 18:32:00,75.0,50.0,30.04,SE,142,0.0,3.0,41,-99.99,,,-99.99,,2013-06-04 01:32:00,
2013-06-03 18:42:00,75.0,50.0,30.04,SE,142,0.0,3.0,41,-99.99,,,-99.99,,2013-06-04 01:42:00,
2013-06-03 18:52:00,73.0,47.0,30.04,WSW,246,2.0,5.0,40,-99.99,,,-99.99,,2013-06-04 01:52:00,
2013-06-03 19:02:00,71.0,47.0,30.05,NNW,342,1.0,5.0,43,-99.99,,,-99.99,,2013-06-04 02:02:00,
2013-06-03 19:12:00,71.0,47.0,30.05,NNW,342,1.0,5.0,43,-99.99,,,-99.99,,2013-06-04 02:12:00,
2013-06-03 19:21:00,70.0,47.0,30.05,NNW,341,1.0,4.0,44,-99.99,,,-99.99,,2013-06-04 02:21:00,
2013-06-03 19:32:00,69.0,51.0,30.05,NNW,333,1.0,6.0,53,-99.99,,,-99.99,,2013-06-04 02:32:00,
2013-06-03 19:42:00,69.0,51.0,30.05,NNW,333,1.0,6.0,53,-99.99,,,-99.99,,2013-06-04 02:42:00,
2013-06-03 19:52:00,68.0,51.0,30.06,NNE,20,3.0,7.0,54,-99.99,,,-99.99,,2013-06-04 02:52:00,
2013-06-03 20:02:00,67.0,50.0,30.06,NNW,330,2.0,5.0,55,-99.99,,,-99.99,,2013-06-04 03:02:00,
2013-06-03 20:11:00,67.0,50.0,30.06,NNW,330,2.0,5.0,55,-99.99,,,-99.99,,2013-06-04 03:11:00,
2013-06-03 20:22:00,66.0,51.0,30.06,NW,308,2.0,6.0,59,-99.99,,,-99.99,,2013-06-04 03:22:00,
2013-06-03 20:32:00,65.0,51.0,30.06,NNW,336,4.0,9.0,61,-99.99,,,-99.99,,2013-06-04 03:32:00,
2013-06-03 20:43:00,65.0,51.0,30.06,NNW,336,4.0,9.0,61,-99.99,,,-99.99,,2013-06-04 03:43:00,
2013-06-03 20:53:00,65.0,52.0,30.06,NNW,331,0.0,5.0,63,-99.99,,,-99.99,,2013-06-04 03:53:00,
2013-06-03 21:02:00,63.0,51.0,30.06,NW,322,0.0,5.0,64,-99.99,,,-99.99,,2013-06-04 04:02:00,
2013-06-03 21:13:00,63.0,51.0,30.06,NW,322,0.0,5.0,64,-99.99,,,-99.99,,2013-06-04 04:13:00,
2013-06-03 21:22:00,63.0,51.0,30.07,NNW,330,1.0,7.0,64,-99.99,,,-99.99,,2013-06-04 04:22:00,
2013-06-03 21:33:00,62.0,50.0,30.07,NNW,345,0.0,6.0,65,-99.99,,,-99.99,,2013-06-04 04:33:00,
2013-06-03 21:42:00,62.0,50.0,30.07,NNW,345,0.0,6.0,65,-99.99,,,-99.99,,2013-06-04 04:42:00,
2013-06-03 21:53:00,61.0,50.0,30.07,NNW,336,0.0,5.0,66,-99.99,,,-99.99,,2013-06-04 04:53:00,
2013-06-03 22:02:00,61.0,50.0,30.07,NNW,338,2.0,4.0,67,-99.99,,,-99.99,,2013-06-04 05:02:00,
2013-06-03 22:12:00,61.0,50.0,30.07,NNW,338,2.0,4.0,67,-99.99,,,-99.99,,2013-06-04 05:12:00,
2013-06-03 22:22:00,60.0,50.0,30.08,NNW,331,0.0,5.0,70,-99.99,,,-99.99,,2013-06-04 05:22:00,
2013-06-03 22:32:00,60.0,50.0,30.07,NNW,332,1.0,3.0,70,-99.99,,,-99.99,,2013-06-04 05:32:00,
2013-06-03 22:42:00,60.0,50.0,30.07,NNW,332,1.0,3.0,70,-99.99,,,-99.99,,2013-06-04 05:42:00,
2013-06-03 22:52:00,59.0,50.0,30.07,NNW,331,0.0,5.0,71,-99.99,,,-99.99,,2013-06-04 05:52:00,
2013-06-03 23:02:00,59.0,50.0,30.08,WNW,297,0.0,4.0,73,-99.99,,,-99.99,,2013-06-04 06:02:00,
2013-06-03 23:12:00,59.0,50.0,30.08,WNW,297,0.0,4.0,73,-99.99,,,-99.99,,2013-06-04 06:12:00,
2013-06-03 23:22:00,58.0,50.0,30.08,WNW,297,0.0,2.0,75,-99.99,,,-99.99,,2013-06-04 06:22:00,
2013-06-03 23:32:00,58.0,50.0,30.08,WNW,297,0.0,4.0,75,-99.99,,,-99.99,,2013-06-04 06:32:00,
2013-06-03 23:42:00,58.0,50.0,30.08,WNW,297,0.0,4.0,75,-99.99,,,-99.99,,2013-06-04 06:42:00,
2013-06-03 23:52:00,57.0,50.0,30.08,WNW,297,0.0,2.0,76,-99.99,,,-99.99,,2013-06-04 06:52:00,